Weather History for Lee's Summit, MO

Change the Weather History Date:

Wednesday, December 5, 2012

  Actual Average (KMKC) Record (KMKC)
Temperature  
Mean Temperature 49 °F -  
Max Temperature 57 °F 45 °F 72 °F (2001)
Min Temperature 41 °F 29 °F 14 °F (2005)
Degree Days  
Heating Degree Days 16    
Moisture  
Dew Point 28 °F    
Average Humidity 46    
Maximum Humidity 62    
Minimum Humidity 34    
Precipitation  
Precipitation 0.00 in - - ()
Sea Level Pressure  
Sea Level Pressure 30.23 in    
Wind  
Wind Speed 6 mph (South)    
Max Wind Speed 12 mph    
Max Gust Speed 18 mph    
Visibility 10 miles    
Events      
Averages and records for this station are not official NWS values.
T = Trace of Precipitation, MM = Missing Value Source: NWS Daily Summary

Daily Weather History Graph

Daily Weather History Graph

Search for Another Location

Airport:

Trip Planner

Search our weather history database for the weather conditions in past years. The results will help you decide how hot, cold, wet, or windy it might be!

Date:

Astronomy

Dec. 05, 2012 Rise Set
Actual Time 7:21 AM CST 4:55 PM CST
Civil Twilight 6:51 AM CST 5:24 PM CST
Nautical Twilight 6:18 AM CST 5:58 PM CST
Astronomical Twilight 5:46 AM CST 6:30 PM CST
Moon 11:42 PM CST (12/5) 11:47 AM CST (12/5)
Length of Visible Light 10h 32m
Length of Day
9h 33m
Waning Gibbous, 59% of the Moon is Illuminated
Dec 5
Waning Gibbous
Dec 6
Last Quarter
Dec 13
New
Dec 19
First Quarter
Dec 28
Full

Hourly Weather History & Observations

Time (CST) Temp. Windchill Dew Point Humidity Pressure Visibility Wind Dir Wind Speed Gust Speed Precip Events Conditions
12:53 AM 43.0 °F 40.3 °F 25.0 °F 49% 30.33 in 10.0 mi SW 4.6 mph - N/A   Clear
1:53 AM 44.1 °F 42.5 °F 25.0 °F 47% 30.33 in 10.0 mi SSW 3.5 mph - N/A   Clear
2:53 AM 46.0 °F 43.9 °F 24.1 °F 42% 30.33 in 10.0 mi SSW 4.6 mph - N/A   Clear
3:53 AM 45.0 °F 42.6 °F 24.1 °F 44% 30.33 in 10.0 mi SSW 4.6 mph - N/A   Clear
4:53 AM 45.0 °F 42.6 °F 25.0 °F 46% 30.32 in 10.0 mi SSW 4.6 mph - N/A   Clear
5:53 AM 43.0 °F 40.3 °F 25.0 °F 49% 30.32 in 10.0 mi SW 4.6 mph - N/A   Clear
6:53 AM 42.1 °F 39.2 °F 25.0 °F 51% 30.34 in 10.0 mi SW 4.6 mph - N/A   Clear
8:53 AM 41.0 °F 38.0 °F 28.9 °F 62% 30.33 in 10.0 mi ESE 4.6 mph - N/A   Clear
9:53 AM 46.9 °F - 30.0 °F 52% 30.33 in 10.0 mi SE 4.6 mph - N/A   Clear
10:53 AM 52.0 °F - 30.9 °F 45% 30.32 in 10.0 mi South 5.8 mph - N/A   Clear
11:53 AM 54.0 °F - 28.9 °F 38% 30.28 in 10.0 mi SSE 8.1 mph - N/A   Clear
12:53 PM 55.9 °F - 32.0 °F 40% 30.25 in 10.0 mi South 5.8 mph - N/A   Clear
1:53 PM 57.0 °F - 30.0 °F 36% 30.22 in 10.0 mi South 8.1 mph 18.4 mph N/A   Clear
2:53 PM 57.0 °F - 30.0 °F 36% 30.18 in 10.0 mi Variable 6.9 mph - N/A   Clear
3:53 PM 57.0 °F - 28.9 °F 34% 30.16 in 10.0 mi South 10.4 mph - N/A   Clear
4:53 PM 53.1 °F - 30.9 °F 43% 30.15 in 10.0 mi SSE 5.8 mph - N/A   Clear
5:53 PM 51.1 °F - 30.9 °F 46% 30.14 in 10.0 mi SSE 5.8 mph - N/A   Clear
6:53 PM 50.0 °F - 30.9 °F 48% 30.12 in 10.0 mi SSE 6.9 mph - N/A   Clear
7:53 PM 50.0 °F - 30.0 °F 46% 30.10 in 10.0 mi SSE 6.9 mph - N/A   Clear
8:53 PM 48.9 °F - 30.0 °F 48% 30.09 in 10.0 mi SSE 8.1 mph - N/A   Clear
10:53 PM 46.9 °F - 30.0 °F 52% 30.06 in 10.0 mi South 9.2 mph - N/A   Clear
11:53 PM 46.9 °F - 30.0 °F 52% 30.04 in 10.0 mi South 11.5 mph - N/A   Clear